This is the latest recevied weather packets stored in our database for station/object JS2QVS-13. If no packets are shown the sender has not sent any weather packets the latest 10 day(s).
| Time | Temp. | Humidity | Pressure | Rain* | Wind** | Luminosity | Snow |
|---|---|---|---|---|---|---|---|
| 1777857462 | 20.56° C | 70% | 999 hPa | 0 mm | - | - | - |
| 1777856862 | 20.56° C | 74% | 998.9 hPa | 0 mm | - | - | - |
| 1777856261 | 20° C | 75% | 998.9 hPa | 0 mm | - | - | - |
| 1777855661 | 20° C | 77% | 998.9 hPa | 0 mm | - | - | - |
| 1777855061 | 20° C | 78% | 999 hPa | 0 mm | - | - | - |
| 1777854461 | 20° C | 80% | 998.8 hPa | 0 mm | - | - | - |
| 1777853861 | 20° C | 83% | 998.7 hPa | 0 mm | - | - | - |
| 1777853263 | 20° C | 84% | 998.8 hPa | 0 mm | - | - | - |
| 1777852663 | 19.44° C | 85% | 998.8 hPa | 0 mm | - | - | - |
| 1777852063 | 19.44° C | 85% | 998.7 hPa | 0 mm | - | - | - |
| 1777851463 | 18.89° C | 86% | 998.9 hPa | 0 mm | - | - | - |
| 1777850862 | 18.89° C | 86% | 998.9 hPa | 0 mm | - | - | - |
| 1777850262 | 18.89° C | 86% | 998.8 hPa | 0 mm | - | - | - |
| 1777849662 | 18.89° C | 86% | 998.8 hPa | 0 mm | - | - | - |
| 1777849062 | 18.89° C | 87% | 998.9 hPa | 0 mm | - | - | - |
| 1777848462 | 18.89° C | 88% | 998.5 hPa | 0 mm | - | - | - |
| 1777847862 | 18.89° C | 87% | 998.1 hPa | 0 mm | - | - | - |
| 1777847262 | 18.89° C | 88% | 998.1 hPa | 0 mm | - | - | - |
| 1777846662 | 18.89° C | 88% | 998 hPa | 0 mm | - | - | - |
| 1777846061 | 18.89° C | 88% | 997.8 hPa | 0 mm | - | - | - |
| 1777845461 | 18.89° C | 88% | 997.4 hPa | 0 mm | - | - | - |
| 1777844261 | 18.89° C | 88% | 997.6 hPa | 0 mm | - | - | - |
| 1777843661 | 18.89° C | 87% | 997.2 hPa | 0 mm | - | - | - |
| 1777843061 | 19.44° C | 87% | 997.2 hPa | 0 mm | - | - | - |
| 1777842463 | 20° C | 87% | 997 hPa | 0 mm | - | - | - |
* Rain latest hour (hover to see other rain measurements)
** Current wind speed in m/s (hover to see current wind gust speed)